BAW54 EGLL-EGGP

Flight info

Callsign BAW54
Flight time 0h 43m
Altitude 18000
Route ULTIB1J ULTIB T420 ELVOS ELVOS1L
Aircraft B738/M-SDE2E3FGHIRWXY/LB1

Departure

Time 2026-05-05 10:36
Airport London Heathrow Airport (EGLL)

Arrival

Time 2026-05-05 11:20
Airport Liverpool John Lennon Airport (EGGP)
Time Latitude Longitude Altitude Speed Heading
2026-05-05 10:06 51.47271 -0.48580 88 ft 0 kts 270°
2026-05-05 10:25 51.47271 -0.48576 85 ft 2 kts 270°
2026-05-05 10:25 51.47271 -0.48548 89 ft 3 kts 269°
2026-05-05 10:25 51.47271 -0.48521 87 ft 3 kts 268°
2026-05-05 10:25 51.47274 -0.48492 87 ft 3 kts 233°
2026-05-05 10:26 51.47287 -0.48476 88 ft 3 kts 187°
2026-05-05 10:26 51.47303 -0.48474 87 ft 1 kts 180°
2026-05-05 10:26 51.47304 -0.48474 87 ft 1 kts 180°
2026-05-05 10:28 51.47278 -0.48474 86 ft 7 kts 180°
2026-05-05 10:28 51.47221 -0.48473 85 ft 9 kts 179°
2026-05-05 10:29 51.47155 -0.48472 87 ft 10 kts 179°
2026-05-05 10:29 51.47083 -0.48471 89 ft 11 kts 179°
2026-05-05 10:29 51.47003 -0.48470 86 ft 12 kts 179°
2026-05-05 10:29 51.46915 -0.48469 89 ft 13 kts 179°
2026-05-05 10:30 51.46835 -0.48468 85 ft 0 kts 179°
2026-05-05 10:33 51.46821 -0.48467 85 ft 5 kts 179°
2026-05-05 10:34 51.46759 -0.48466 85 ft 12 kts 180°
2026-05-05 10:34 51.46666 -0.48467 85 ft 13 kts 180°
2026-05-05 10:34 51.46574 -0.48468 85 ft 13 kts 180°
2026-05-05 10:34 51.46491 -0.48435 87 ft 13 kts 130°
2026-05-05 10:35 51.46480 -0.48300 87 ft 12 kts 90°
2026-05-05 10:35 51.46479 -0.48234 88 ft 0 kts 90°
2026-05-05 10:35 51.46479 -0.48191 87 ft 21 kts 90°
2026-05-05 10:35 51.46481 -0.47553 84 ft 92 kts 90°
2026-05-05 10:36 51.46485 -0.46196 90 ft 148 kts 89°
2026-05-05 10:36 51.46500 -0.44428 519 ft 164 kts 88°
2026-05-05 10:36 51.46520 -0.42590 1334 ft 162 kts 85°
2026-05-05 10:36 51.46816 -0.40906 2053 ft 161 kts 54°
2026-05-05 10:37 51.47551 -0.39365 2386 ft 187 kts 48°
2026-05-05 10:37 51.48437 -0.37659 2614 ft 211 kts 48°
2026-05-05 10:37 51.49423 -0.35777 2818 ft 235 kts 48°
2026-05-05 10:37 51.50508 -0.33704 3363 ft 246 kts 49°
2026-05-05 10:38 51.51608 -0.31597 4267 ft 246 kts 50°
2026-05-05 10:38 51.52509 -0.29264 5012 ft 252 kts 69°
2026-05-05 10:38 51.53058 -0.26558 5720 ft 257 kts 71°
2026-05-05 10:38 51.53619 -0.23836 5994 ft 258 kts 71°
2026-05-05 10:39 51.54208 -0.21060 6001 ft 266 kts 69°
2026-05-05 10:39 51.55274 -0.18648 5996 ft 268 kts 35°
2026-05-05 10:39 51.57011 -0.17702 6003 ft 268 kts
2026-05-05 10:39 51.58774 -0.18555 5980 ft 270 kts 326°
2026-05-05 10:40 51.60133 -0.20622 6010 ft 270 kts 317°
2026-05-05 10:40 51.61556 -0.22561 6004 ft 273 kts 326°
2026-05-05 10:40 51.63089 -0.24356 6006 ft 273 kts 325°
2026-05-05 10:40 51.64623 -0.26177 5999 ft 272 kts 326°
2026-05-05 10:41 51.66192 -0.27887 6047 ft 275 kts 329°
2026-05-05 10:41 51.67823 -0.29543 6634 ft 277 kts 329°
2026-05-05 10:41 51.69457 -0.31154 7543 ft 274 kts 330°
2026-05-05 10:41 51.71092 -0.32744 8361 ft 276 kts 329°
2026-05-05 10:42 51.73842 -0.35400 8995 ft 276 kts 330°
2026-05-05 10:42 51.75520 -0.37012 8992 ft 283 kts 329°
2026-05-05 10:42 51.77189 -0.38616 8988 ft 282 kts 330°
2026-05-05 10:43 51.78884 -0.40245 8992 ft 279 kts 329°
2026-05-05 10:43 51.80552 -0.41851 9288 ft 279 kts 329°
2026-05-05 10:43 51.82217 -0.43467 9941 ft 285 kts 329°
2026-05-05 10:43 51.83953 -0.45162 10657 ft 288 kts 329°
2026-05-05 10:44 51.85643 -0.46814 11395 ft 289 kts 329°
2026-05-05 10:44 51.87384 -0.48518 12041 ft 296 kts 329°
2026-05-05 10:44 51.89145 -0.50242 12856 ft 296 kts 329°
2026-05-05 10:44 51.90924 -0.51984 13572 ft 301 kts 329°
2026-05-05 10:45 51.92723 -0.53747 13979 ft 304 kts 329°
2026-05-05 10:45 51.94526 -0.55516 14229 ft 303 kts 329°
2026-05-05 10:45 51.96341 -0.57287 14501 ft 308 kts 329°
2026-05-05 10:45 51.98188 -0.59087 14770 ft 310 kts 329°
2026-05-05 10:46 52.00044 -0.60897 15041 ft 311 kts 329°
2026-05-05 10:46 52.01906 -0.62716 15309 ft 313 kts 328°
2026-05-05 10:46 52.03774 -0.64543 15591 ft 314 kts 328°
2026-05-05 10:46 52.05646 -0.66376 15874 ft 315 kts 327°
2026-05-05 10:47 52.07520 -0.68213 16139 ft 316 kts 328°
2026-05-05 10:47 52.09386 -0.70043 16425 ft 317 kts 327°
2026-05-05 10:47 52.11278 -0.71901 16711 ft 319 kts 328°
2026-05-05 10:47 52.13182 -0.73774 17013 ft 321 kts 328°
2026-05-05 10:48 52.15106 -0.75674 17304 ft 324 kts 327°
2026-05-05 10:48 52.17041 -0.77591 17583 ft 327 kts 327°
2026-05-05 10:48 52.18989 -0.79525 17883 ft 327 kts 327°
2026-05-05 10:48 52.20941 -0.81462 17981 ft 331 kts 327°
2026-05-05 10:49 52.22912 -0.83420 17992 ft 331 kts 327°
2026-05-05 10:49 52.24877 -0.85373 17982 ft 330 kts 327°
2026-05-05 10:49 52.26839 -0.87319 17982 ft 330 kts 327°
2026-05-05 10:49 52.28802 -0.89265 17992 ft 330 kts 327°
2026-05-05 10:50 52.30769 -0.91214 18000 ft 330 kts 327°
2026-05-05 10:50 52.32732 -0.93162 17980 ft 330 kts 327°
2026-05-05 10:50 52.34695 -0.95113 17978 ft 330 kts 327°
2026-05-05 10:50 52.36664 -0.97073 17996 ft 338 kts 327°
2026-05-05 10:51 52.38746 -0.99150 18019 ft 362 kts 327°
2026-05-05 10:51 52.40965 -1.01367 18011 ft 384 kts 327°
2026-05-05 10:51 52.43303 -1.03702 18014 ft 403 kts 327°
2026-05-05 10:51 52.45704 -1.06099 17995 ft 404 kts 327°
2026-05-05 10:52 52.48111 -1.08507 17996 ft 405 kts 327°
2026-05-05 10:52 52.50516 -1.10927 18001 ft 406 kts 327°
2026-05-05 10:52 52.52918 -1.13363 18015 ft 406 kts 326°
2026-05-05 10:52 52.55316 -1.15800 18008 ft 406 kts 326°
2026-05-05 10:53 52.57714 -1.18235 18008 ft 405 kts 327°
2026-05-05 10:53 52.60113 -1.20664 18011 ft 404 kts 327°
2026-05-05 10:53 52.62509 -1.23088 18017 ft 404 kts 327°
2026-05-05 10:53 52.64870 -1.25481 18014 ft 403 kts 327°
2026-05-05 10:54 52.67256 -1.27905 18015 ft 403 kts 326°
2026-05-05 10:54 52.69646 -1.30335 18063 ft 406 kts 326°
2026-05-05 10:54 52.72071 -1.32804 18515 ft 411 kts 326°
2026-05-05 10:54 52.74510 -1.35285 19210 ft 409 kts 326°
2026-05-05 10:55 52.76934 -1.37753 19819 ft 408 kts 326°
2026-05-05 10:55 52.79366 -1.40234 20010 ft 417 kts 325°
2026-05-05 10:55 52.81839 -1.42763 20024 ft 428 kts 326°
2026-05-05 10:55 52.84387 -1.45372 20030 ft 434 kts 326°
2026-05-05 10:56 52.86953 -1.47997 20020 ft 431 kts 326°
2026-05-05 10:56 52.89495 -1.50602 20014 ft 429 kts 326°
2026-05-05 10:56 52.92025 -1.53199 20022 ft 427 kts 325°
2026-05-05 10:56 52.94551 -1.55797 20016 ft 424 kts 325°
2026-05-05 10:57 52.97009 -1.58326 20006 ft 407 kts 325°
2026-05-05 10:57 52.99381 -1.60769 20009 ft 400 kts 325°
2026-05-05 10:57 53.01713 -1.63177 20014 ft 387 kts 325°
2026-05-05 10:57 53.03847 -1.65752 19879 ft 371 kts 310°
2026-05-05 10:58 53.05290 -1.69190 19556 ft 358 kts 293°
2026-05-05 10:58 53.06066 -1.73080 19075 ft 353 kts 279°
2026-05-05 10:58 53.06481 -1.77087 18608 ft 351 kts 277°
2026-05-05 10:58 53.06839 -1.81044 18159 ft 349 kts 276°
2026-05-05 10:59 53.07188 -1.85029 17674 ft 347 kts 277°
2026-05-05 10:59 53.07541 -1.88991 17218 ft 345 kts 277°
2026-05-05 10:59 53.07890 -1.92831 17120 ft 327 kts 277°
2026-05-05 10:59 53.08228 -1.96503 17040 ft 315 kts 277°
2026-05-05 11:00 53.08557 -2.00048 16940 ft 305 kts 277°
2026-05-05 11:00 53.08878 -2.03496 16739 ft 300 kts 277°
2026-05-05 11:00 53.09198 -2.06942 16339 ft 303 kts 278°
2026-05-05 11:00 53.09521 -2.10410 15970 ft 304 kts 278°
2026-05-05 11:01 53.09843 -2.13887 15596 ft 304 kts 278°
2026-05-05 11:01 53.10164 -2.17356 15227 ft 303 kts 278°
2026-05-05 11:01 53.10484 -2.20823 14860 ft 303 kts 278°
2026-05-05 11:01 53.10803 -2.24287 14503 ft 303 kts 278°
2026-05-05 11:02 53.11122 -2.27752 14144 ft 302 kts 278°
2026-05-05 11:02 53.11438 -2.31213 13782 ft 302 kts 278°
2026-05-05 11:02 53.11753 -2.34667 13380 ft 301 kts 278°
2026-05-05 11:02 53.12067 -2.38113 12988 ft 301 kts 278°
2026-05-05 11:03 53.12378 -2.41554 12595 ft 301 kts 278°
2026-05-05 11:03 53.12690 -2.44999 12207 ft 299 kts 278°
2026-05-05 11:03 53.12991 -2.48336 11811 ft 291 kts 278°
2026-05-05 11:03 53.13290 -2.51671 11420 ft 284 kts 278°
2026-05-05 11:04 53.13574 -2.54850 11043 ft 278 kts 278°
2026-05-05 11:04 53.13859 -2.57999 10678 ft 272 kts 279°
2026-05-05 11:04 53.14154 -2.61081 10297 ft 267 kts 280°
2026-05-05 11:04 53.14446 -2.64100 9930 ft 261 kts 280°
2026-05-05 11:05 53.14734 -2.67072 9525 ft 257 kts 279°
2026-05-05 11:05 53.15016 -2.69994 9140 ft 254 kts 280°
2026-05-05 11:05 53.15293 -2.72885 8744 ft 251 kts 280°
2026-05-05 11:05 53.15567 -2.75747 8344 ft 248 kts 280°
2026-05-05 11:06 53.15837 -2.78578 7955 ft 246 kts 281°
2026-05-05 11:06 53.16102 -2.81369 7589 ft 243 kts 281°
2026-05-05 11:06 53.16364 -2.84137 7205 ft 242 kts 280°
2026-05-05 11:06 53.16623 -2.86883 6844 ft 240 kts 280°
2026-05-05 11:07 53.16885 -2.89634 6481 ft 238 kts 282°
2026-05-05 11:07 53.17143 -2.92353 6087 ft 237 kts 282°
2026-05-05 11:07 53.17392 -2.95058 5698 ft 235 kts 282°
2026-05-05 11:07 53.17643 -2.97738 5307 ft 234 kts 281°
2026-05-05 11:08 53.17890 -3.00384 4939 ft 233 kts 282°
2026-05-05 11:08 53.18137 -3.03033 4534 ft 231 kts 282°
2026-05-05 11:08 53.18385 -3.05679 4156 ft 230 kts 281°
2026-05-05 11:08 53.18630 -3.08328 3905 ft 230 kts 282°
2026-05-05 11:09 53.19086 -3.10809 3847 ft 219 kts 309°
2026-05-05 11:09 53.20288 -3.12171 3853 ft 211 kts 349°
2026-05-05 11:09 53.21721 -3.11790 3861 ft 216 kts 30°
2026-05-05 11:09 53.22639 -3.09882 3861 ft 214 kts 71°
2026-05-05 11:10 53.22704 -3.07451 3860 ft 207 kts 90°
2026-05-05 11:10 53.22625 -3.05092 3837 ft 201 kts 90°
2026-05-05 11:10 53.22555 -3.02759 3854 ft 203 kts 90°
2026-05-05 11:10 53.22476 -3.00392 3826 ft 204 kts 89°
2026-05-05 11:11 53.22384 -2.98048 3668 ft 199 kts 89°
2026-05-05 11:11 53.22302 -2.95779 3287 ft 199 kts 89°
2026-05-05 11:11 53.22227 -2.93489 3128 ft 196 kts 89°
2026-05-05 11:11 53.22150 -2.91205 3021 ft 199 kts 91°
2026-05-05 11:12 53.22075 -2.88889 3010 ft 201 kts 89°
2026-05-05 11:12 53.21988 -2.86529 3014 ft 204 kts 91°
2026-05-05 11:12 53.21909 -2.84168 3004 ft 203 kts 90°
2026-05-05 11:12 53.21833 -2.81822 3009 ft 202 kts 89°
2026-05-05 11:13 53.21743 -2.79492 2991 ft 200 kts 90°
2026-05-05 11:13 53.21651 -2.77176 2990 ft 199 kts 89°
2026-05-05 11:13 53.21561 -2.74852 2992 ft 200 kts 90°
2026-05-05 11:13 53.21479 -2.72531 2846 ft 198 kts 90°
2026-05-05 11:14 53.21414 -2.70277 2603 ft 197 kts 84°
2026-05-05 11:14 53.21874 -2.68210 2240 ft 190 kts 37°
2026-05-05 11:14 53.22998 -2.67335 2234 ft 173 kts 13°
2026-05-05 11:14 53.24138 -2.66727 2085 ft 171 kts 14°
2026-05-05 11:15 53.25249 -2.66100 2009 ft 169 kts 15°
2026-05-05 11:15 53.26359 -2.65488 2009 ft 167 kts 15°
2026-05-05 11:15 53.27451 -2.64864 2003 ft 166 kts 14°
2026-05-05 11:15 53.28553 -2.64262 1995 ft 167 kts 16°
2026-05-05 11:16 53.29669 -2.63690 1999 ft 167 kts
2026-05-05 11:16 53.30801 -2.63804 2017 ft 163 kts 350°
2026-05-05 11:16 53.31938 -2.64088 1997 ft 166 kts 349°
2026-05-05 11:16 53.32945 -2.64876 1970 ft 161 kts 308°
2026-05-05 11:17 53.33499 -2.66531 2001 ft 166 kts 300°
2026-05-05 11:17 53.34013 -2.68299 1871 ft 174 kts 288°
2026-05-05 11:17 53.34027 -2.70285 1698 ft 167 kts 267°
2026-05-05 11:17 53.33955 -2.72150 1453 ft 160 kts 269°
2026-05-05 11:18 53.33875 -2.73937 1248 ft 153 kts 271°
2026-05-05 11:18 53.33794 -2.75683 1030 ft 150 kts 271°
2026-05-05 11:18 53.33713 -2.77416 812 ft 146 kts 270°
2026-05-05 11:18 53.33636 -2.79074 626 ft 144 kts 270°
2026-05-05 11:19 53.33557 -2.80787 422 ft 150 kts 269°
2026-05-05 11:19 53.33479 -2.82480 246 ft 144 kts 268°
2026-05-05 11:19 53.33404 -2.84112 88 ft 131 kts 269°
2026-05-05 11:19 53.33351 -2.85281 93 ft 71 kts 265°
2026-05-05 11:20 53.33322 -2.85892 91 ft 38 kts 266°
2026-05-05 11:20 53.33304 -2.86292 88 ft 30 kts 274°
2026-05-05 11:20 53.33387 -2.86426 88 ft 0 kts 358°
2026-05-05 11:21 53.33408 -2.86427 88 ft 6 kts 358°
2026-05-05 11:22 53.33425 -2.86426 88 ft 0 kts
2026-05-05 11:22 53.33437 -2.86421 88 ft 6 kts 16°
2026-05-05 11:23 53.33475 -2.86339 89 ft 10 kts 50°
2026-05-05 11:23 53.33534 -2.86304 90 ft 6 kts 16°
2026-05-05 11:23 53.33567 -2.86263 89 ft 6 kts 50°
2026-05-05 11:23 53.33583 -2.86199 88 ft 6 kts 77°
2026-05-05 11:24 53.33586 -2.86131 88 ft 6 kts 86°
2026-05-05 11:24 53.33588 -2.86064 88 ft 6 kts 87°
2026-05-05 11:24 53.33590 -2.85999 88 ft 6 kts 87°
2026-05-05 11:24 53.33604 -2.85965 90 ft 0 kts 32°
2026-05-05 11:25 53.33612 -2.85962 88 ft 3 kts 16°
2026-05-05 11:25 53.33628 -2.85958 88 ft 1 kts
2026-05-05 11:25 53.33632 -2.85959 88 ft 0 kts 354°
2026-05-05 11:25 53.33637 -2.85959 88 ft 0 kts 358°